AAL6431 KLAX-KSFO

Flight info

Callsign AAL6431
Flight time 0h 55m
Altitude 32000
Route SUMMR2 STOKD SERFR SERFR4
Aircraft A319/M-SDE3FGHIRWY/LB1

Departure

Time 2026-04-26 00:45
Airport Los Angeles International Airport (KLAX)

Arrival

Time 2026-04-26 01:41
Airport San Francisco International Airport (KSFO)
Time Latitude Longitude Altitude Speed Heading
2026-04-25 23:59 33.93968 -118.40605 93 ft 0 kts 321°
2026-04-26 00:00 33.93966 -118.40604 93 ft 0 kts 322°
2026-04-26 00:28 33.93964 -118.40602 93 ft 3 kts 322°
2026-04-26 00:28 33.93943 -118.40583 94 ft 4 kts 322°
2026-04-26 00:28 33.93926 -118.40566 94 ft 2 kts 322°
2026-04-26 00:29 33.93909 -118.40545 94 ft 4 kts 282°
2026-04-26 00:29 33.93909 -118.40517 93 ft 4 kts 263°
2026-04-26 00:29 33.93912 -118.40486 96 ft 2 kts 263°
2026-04-26 00:29 33.93913 -118.40484 95 ft 0 kts 263°
2026-04-26 00:34 33.93912 -118.40485 96 ft 1 kts 264°
2026-04-26 00:35 33.93911 -118.40504 91 ft 3 kts 264°
2026-04-26 00:35 33.93907 -118.40549 94 ft 7 kts 264°
2026-04-26 00:35 33.93901 -118.40612 93 ft 9 kts 263°
2026-04-26 00:35 33.93892 -118.40692 93 ft 10 kts 262°
2026-04-26 00:36 33.93882 -118.40784 95 ft 12 kts 263°
2026-04-26 00:36 33.93872 -118.40887 93 ft 13 kts 262°
2026-04-26 00:36 33.93860 -118.40999 93 ft 14 kts 263°
2026-04-26 00:36 33.93850 -118.41100 93 ft 9 kts 263°
2026-04-26 00:37 33.93878 -118.41162 93 ft 10 kts 345°
2026-04-26 00:37 33.93956 -118.41174 94 ft 12 kts 352°
2026-04-26 00:37 33.94048 -118.41188 93 ft 14 kts 354°
2026-04-26 00:37 33.94152 -118.41202 95 ft 16 kts 353°
2026-04-26 00:38 33.94266 -118.41220 93 ft 17 kts 353°
2026-04-26 00:38 33.94392 -118.41238 94 ft 19 kts 353°
2026-04-26 00:38 33.94527 -118.41259 93 ft 20 kts 353°
2026-04-26 00:38 33.94669 -118.41280 95 ft 21 kts 352°
2026-04-26 00:39 33.94767 -118.41290 94 ft 11 kts 11°
2026-04-26 00:39 33.94799 -118.41211 96 ft 12 kts 82°
2026-04-26 00:39 33.94811 -118.41105 95 ft 13 kts 82°
2026-04-26 00:39 33.94818 -118.41030 97 ft 14 kts 84°
2026-04-26 00:40 33.94836 -118.40858 95 ft 17 kts 83°
2026-04-26 00:40 33.94851 -118.40712 94 ft 18 kts 83°
2026-04-26 00:40 33.94867 -118.40554 94 ft 20 kts 83°
2026-04-26 00:40 33.94885 -118.40383 94 ft 21 kts 83°
2026-04-26 00:41 33.94904 -118.40201 94 ft 23 kts 83°
2026-04-26 00:41 33.94922 -118.40021 93 ft 17 kts 83°
2026-04-26 00:41 33.94949 -118.39923 95 ft 10 kts 39°
2026-04-26 00:41 33.94959 -118.39917 94 ft 0 kts 24°
2026-04-26 00:43 33.94969 -118.39912 93 ft 3 kts 21°
2026-04-26 00:43 33.94995 -118.39909 93 ft 5 kts 356°
2026-04-26 00:44 33.95033 -118.39916 95 ft 7 kts 351°
2026-04-26 00:44 33.95046 -118.39949 94 ft 5 kts 252°
2026-04-26 00:44 33.95038 -118.39997 93 ft 8 kts 262°
2026-04-26 00:44 33.95011 -118.40260 98 ft 69 kts 263°
2026-04-26 00:45 33.94922 -118.41120 98 ft 135 kts 263°
2026-04-26 00:45 33.94836 -118.41951 199 ft 160 kts 263°
2026-04-26 00:45 33.94639 -118.43777 1092 ft 167 kts 263°
2026-04-26 00:45 33.94483 -118.45179 1850 ft 170 kts 263°
2026-04-26 00:46 33.94328 -118.46643 2402 ft 186 kts 263°
2026-04-26 00:46 33.94211 -118.48310 2768 ft 215 kts 266°
2026-04-26 00:46 33.94166 -118.49551 3096 ft 232 kts 267°
2026-04-26 00:46 33.94118 -118.51596 3688 ft 254 kts 268°
2026-04-26 00:47 33.94065 -118.53772 4560 ft 265 kts 267°
2026-04-26 00:47 33.93957 -118.55990 5652 ft 264 kts 265°
2026-04-26 00:47 33.93788 -118.58175 6807 ft 262 kts 263°
2026-04-26 00:47 33.93599 -118.60364 7863 ft 262 kts 263°
2026-04-26 00:48 33.93396 -118.62538 8931 ft 262 kts 262°
2026-04-26 00:48 33.93182 -118.64740 9860 ft 269 kts 262°
2026-04-26 00:48 33.92952 -118.67020 10552 ft 281 kts 262°
2026-04-26 00:48 33.92739 -118.69439 11055 ft 298 kts 263°
2026-04-26 00:49 33.92535 -118.71955 11749 ft 304 kts 263°
2026-04-26 00:49 33.92364 -118.74483 12017 ft 304 kts 264°
2026-04-26 00:49 33.92185 -118.77017 12003 ft 302 kts 263°
2026-04-26 00:49 33.91995 -118.79530 12000 ft 301 kts 263°
2026-04-26 00:50 33.91799 -118.82007 12000 ft 301 kts 263°
2026-04-26 00:50 33.91731 -118.84525 12060 ft 305 kts 270°
2026-04-26 00:50 33.91813 -118.87101 12918 ft 307 kts 270°
2026-04-26 00:50 33.91891 -118.89671 13902 ft 307 kts 270°
2026-04-26 00:51 33.91968 -118.92256 14690 ft 310 kts 269°
2026-04-26 00:51 33.92044 -118.94869 15422 ft 315 kts 269°
2026-04-26 00:51 33.92122 -118.97520 16146 ft 319 kts 268°
2026-04-26 00:51 33.92307 -119.00212 16891 ft 328 kts 276°
2026-04-26 00:52 33.92976 -119.02878 17644 ft 339 kts 288°
2026-04-26 00:52 33.94143 -119.05392 18347 ft 349 kts 296°
2026-04-26 00:52 33.95439 -119.07883 19014 ft 353 kts 295°
2026-04-26 00:52 33.96746 -119.10397 19689 ft 355 kts 295°
2026-04-26 00:53 33.98056 -119.12926 20356 ft 357 kts 295°
2026-04-26 00:53 33.99373 -119.15478 21022 ft 360 kts 294°
2026-04-26 00:53 34.00852 -119.17959 21671 ft 370 kts 303°
2026-04-26 00:53 34.02746 -119.20134 22326 ft 384 kts 314°
2026-04-26 00:54 34.04944 -119.22047 22879 ft 392 kts 317°
2026-04-26 00:54 34.07176 -119.23960 23469 ft 396 kts 317°
2026-04-26 00:54 34.09435 -119.25897 24017 ft 399 kts 317°
2026-04-26 00:54 34.11701 -119.27841 24568 ft 401 kts 317°
2026-04-26 00:55 34.13981 -119.29797 25093 ft 404 kts 316°
2026-04-26 00:55 34.16276 -119.31771 25589 ft 406 kts 316°
2026-04-26 00:55 34.18586 -119.33762 26087 ft 409 kts 316°
2026-04-26 00:55 34.20914 -119.35772 26590 ft 412 kts 316°
2026-04-26 00:56 34.23256 -119.37794 27039 ft 416 kts 317°
2026-04-26 00:56 34.25622 -119.39837 27477 ft 419 kts 317°
2026-04-26 00:56 34.28005 -119.41896 27935 ft 422 kts 316°
2026-04-26 00:56 34.30399 -119.43970 28368 ft 425 kts 316°
2026-04-26 00:57 34.32813 -119.46063 28817 ft 428 kts 316°
2026-04-26 00:57 34.35232 -119.48163 29265 ft 431 kts 316°
2026-04-26 00:57 34.37675 -119.50286 29704 ft 433 kts 316°
2026-04-26 00:57 34.40131 -119.52429 30124 ft 435 kts 315°
2026-04-26 00:58 34.42371 -119.54790 30457 ft 430 kts 307°
2026-04-26 00:58 34.44506 -119.57406 30833 ft 432 kts 307°
2026-04-26 00:58 34.46600 -119.59978 31199 ft 435 kts 307°
2026-04-26 00:58 34.48730 -119.62597 31572 ft 437 kts 307°
2026-04-26 00:59 34.50860 -119.65224 31873 ft 438 kts 307°
2026-04-26 00:59 34.52991 -119.67854 31938 ft 432 kts 307°
2026-04-26 00:59 34.55063 -119.70391 31940 ft 415 kts 307°
2026-04-26 00:59 34.57060 -119.72832 31947 ft 404 kts 307°
2026-04-26 01:00 34.60970 -119.77652 31944 ft 398 kts 307°
2026-04-26 01:00 34.64834 -119.82454 31947 ft 397 kts 306°
2026-04-26 01:01 34.68672 -119.87222 31956 ft 396 kts 307°
2026-04-26 01:01 34.72532 -119.92011 31953 ft 396 kts 307°
2026-04-26 01:02 34.76383 -119.96794 31951 ft 396 kts 307°
2026-04-26 01:02 34.80234 -120.01588 31949 ft 397 kts 307°
2026-04-26 01:03 34.84101 -120.06405 31948 ft 398 kts 307°
2026-04-26 01:03 34.87973 -120.11228 31956 ft 398 kts 307°
2026-04-26 01:04 34.91836 -120.16052 31984 ft 397 kts 308°
2026-04-26 01:04 34.95695 -120.20876 31984 ft 398 kts 308°
2026-04-26 01:05 34.99557 -120.25709 31978 ft 398 kts 308°
2026-04-26 01:05 35.03409 -120.30544 31974 ft 397 kts 307°
2026-04-26 01:06 35.07259 -120.35387 31989 ft 397 kts 308°
2026-04-26 01:06 35.11185 -120.40156 31991 ft 400 kts 311°
2026-04-26 01:07 35.15308 -120.44726 31995 ft 400 kts 312°
2026-04-26 01:07 35.19456 -120.49255 31980 ft 399 kts 312°
2026-04-26 01:08 35.23530 -120.53788 31978 ft 398 kts 312°
2026-04-26 01:08 35.27613 -120.58387 31969 ft 399 kts 312°
2026-04-26 01:09 35.31694 -120.63004 31963 ft 399 kts 312°
2026-04-26 01:09 35.35780 -120.67614 31961 ft 399 kts 312°
2026-04-26 01:10 35.39870 -120.72224 31962 ft 400 kts 312°
2026-04-26 01:10 35.43962 -120.76850 31959 ft 400 kts 313°
2026-04-26 01:11 35.48062 -120.81483 31964 ft 401 kts 314°
2026-04-26 01:11 35.52523 -120.85688 31965 ft 404 kts 318°
2026-04-26 01:12 35.57016 -120.89851 31973 ft 405 kts 319°
2026-04-26 01:12 35.61514 -120.94027 31961 ft 405 kts 319°
2026-04-26 01:13 35.65983 -120.98189 31978 ft 405 kts 319°
2026-04-26 01:13 35.70477 -121.02379 31981 ft 405 kts 319°
2026-04-26 01:14 35.74966 -121.06556 31980 ft 405 kts 320°
2026-04-26 01:14 35.79451 -121.10751 31969 ft 405 kts 319°
2026-04-26 01:15 35.83939 -121.14951 31967 ft 405 kts 320°
2026-04-26 01:15 35.88432 -121.19153 31965 ft 405 kts 319°
2026-04-26 01:16 35.92918 -121.23363 31961 ft 406 kts 320°
2026-04-26 01:16 35.97416 -121.27589 31969 ft 406 kts 320°
2026-04-26 01:17 36.01907 -121.31809 31972 ft 405 kts 320°
2026-04-26 01:17 36.06387 -121.36032 31969 ft 405 kts 321°
2026-04-26 01:18 36.11123 -121.39813 31976 ft 415 kts 326°
2026-04-26 01:18 36.13572 -121.41723 31789 ft 416 kts 326°
2026-04-26 01:18 36.16039 -121.43648 30821 ft 423 kts 327°
2026-04-26 01:19 36.18531 -121.45592 30128 ft 421 kts 327°
2026-04-26 01:19 36.20992 -121.47505 29635 ft 413 kts 328°
2026-04-26 01:19 36.23395 -121.49378 29201 ft 404 kts 327°
2026-04-26 01:19 36.25748 -121.51215 28764 ft 397 kts 327°
2026-04-26 01:20 36.28080 -121.53040 28354 ft 392 kts 328°
2026-04-26 01:20 36.30382 -121.54842 27927 ft 389 kts 328°
2026-04-26 01:20 36.32661 -121.56632 27507 ft 387 kts 328°
2026-04-26 01:20 36.34925 -121.58411 27073 ft 384 kts 328°
2026-04-26 01:21 36.37181 -121.60181 26652 ft 382 kts 328°
2026-04-26 01:21 36.39422 -121.61943 26213 ft 380 kts 328°
2026-04-26 01:21 36.41618 -121.63675 25757 ft 378 kts 328°
2026-04-26 01:21 36.43833 -121.65428 25311 ft 377 kts 327°
2026-04-26 01:22 36.46039 -121.67170 24864 ft 375 kts 327°
2026-04-26 01:22 36.48238 -121.68904 24389 ft 371 kts 327°
2026-04-26 01:22 36.50406 -121.70609 24008 ft 364 kts 327°
2026-04-26 01:22 36.52535 -121.72284 23499 ft 361 kts 327°
2026-04-26 01:23 36.54640 -121.73944 23007 ft 355 kts 326°
2026-04-26 01:23 36.56709 -121.75581 22546 ft 348 kts 327°
2026-04-26 01:23 36.58740 -121.77190 22126 ft 342 kts 326°
2026-04-26 01:23 36.60726 -121.78761 21716 ft 336 kts 326°
2026-04-26 01:24 36.62681 -121.80309 21320 ft 330 kts 326°
2026-04-26 01:24 36.64611 -121.81839 20923 ft 327 kts 326°
2026-04-26 01:24 36.66500 -121.83336 20533 ft 326 kts 326°
2026-04-26 01:24 36.68410 -121.84854 20140 ft 325 kts 325°
2026-04-26 01:25 36.70307 -121.86362 19750 ft 324 kts 326°
2026-04-26 01:25 36.72204 -121.87868 19380 ft 323 kts 326°
2026-04-26 01:25 36.74207 -121.89168 18995 ft 325 kts 335°
2026-04-26 01:25 36.76363 -121.90047 18547 ft 329 kts 345°
2026-04-26 01:26 36.78606 -121.90665 18065 ft 331 kts 346°
2026-04-26 01:26 36.80847 -121.91283 17684 ft 328 kts 346°
2026-04-26 01:26 36.83070 -121.91904 17290 ft 327 kts 347°
2026-04-26 01:26 36.85286 -121.92523 16865 ft 326 kts 347°
2026-04-26 01:27 36.87475 -121.93136 16522 ft 320 kts 347°
2026-04-26 01:27 36.89645 -121.93745 16044 ft 318 kts 347°
2026-04-26 01:27 36.91804 -121.94353 15559 ft 317 kts 347°
2026-04-26 01:27 36.93941 -121.94953 15143 ft 313 kts 348°
2026-04-26 01:28 36.96056 -121.95583 14709 ft 311 kts 346°
2026-04-26 01:28 36.98077 -121.96313 14411 ft 303 kts 343°
2026-04-26 01:28 37.00084 -121.97102 14021 ft 300 kts 342°
2026-04-26 01:28 37.02065 -121.97907 13581 ft 298 kts 342°
2026-04-26 01:29 37.04024 -121.98704 13099 ft 296 kts 342°
2026-04-26 01:29 37.05984 -121.99491 12598 ft 295 kts 342°
2026-04-26 01:29 37.07932 -122.00264 12145 ft 292 kts 342°
2026-04-26 01:29 37.09862 -122.01025 11721 ft 289 kts 342°
2026-04-26 01:30 37.11773 -122.01778 11329 ft 287 kts 341°
2026-04-26 01:30 37.13678 -122.02527 10938 ft 286 kts 341°
2026-04-26 01:30 37.15578 -122.03273 10546 ft 286 kts 341°
2026-04-26 01:30 37.17459 -122.04010 10162 ft 287 kts 340°
2026-04-26 01:31 37.19363 -122.04754 9876 ft 284 kts 341°
2026-04-26 01:31 37.21225 -122.05481 9605 ft 278 kts 341°
2026-04-26 01:31 37.23074 -122.06204 9098 ft 276 kts 340°
2026-04-26 01:31 37.24908 -122.06922 8614 ft 275 kts 341°
2026-04-26 01:32 37.26725 -122.07631 8219 ft 270 kts 340°
2026-04-26 01:32 37.28506 -122.08328 7854 ft 266 kts 340°
2026-04-26 01:32 37.30267 -122.09019 7490 ft 262 kts 340°
2026-04-26 01:32 37.31990 -122.09695 7132 ft 256 kts 340°
2026-04-26 01:33 37.33673 -122.10360 6796 ft 251 kts 340°
2026-04-26 01:33 37.35325 -122.11014 6456 ft 246 kts 339°
2026-04-26 01:33 37.36923 -122.11646 6113 ft 240 kts 340°
2026-04-26 01:33 37.38493 -122.12247 5827 ft 233 kts 340°
2026-04-26 01:34 37.40047 -122.12793 5537 ft 232 kts 341°
2026-04-26 01:34 37.41599 -122.13321 5258 ft 230 kts 341°
2026-04-26 01:34 37.43142 -122.13841 4982 ft 229 kts 341°
2026-04-26 01:34 37.44675 -122.14356 4706 ft 227 kts 341°
2026-04-26 01:35 37.46196 -122.14864 4427 ft 226 kts 341°
2026-04-26 01:35 37.47710 -122.15360 4152 ft 224 kts 341°
2026-04-26 01:35 37.49216 -122.15851 3882 ft 223 kts 342°
2026-04-26 01:35 37.50209 -122.16175 3704 ft 222 kts 341°
2026-04-26 01:36 37.51703 -122.16664 3453 ft 221 kts 341°
2026-04-26 01:36 37.53081 -122.17423 3185 ft 214 kts 322°
2026-04-26 01:36 37.54125 -122.18680 3029 ft 201 kts 303°
2026-04-26 01:37 37.55409 -122.21578 2593 ft 182 kts 294°
2026-04-26 01:37 37.55988 -122.22958 2353 ft 175 kts 294°
2026-04-26 01:37 37.56553 -122.24303 2117 ft 170 kts 294°
2026-04-26 01:37 37.57092 -122.25589 1854 ft 161 kts 294°
2026-04-26 01:38 37.57597 -122.26798 1628 ft 151 kts 294°
2026-04-26 01:38 37.58083 -122.27921 1461 ft 141 kts 295°
2026-04-26 01:38 37.58524 -122.28924 1322 ft 128 kts 295°
2026-04-26 01:38 37.58901 -122.29927 1046 ft 123 kts 293°
2026-04-26 01:39 37.59321 -122.30855 839 ft 121 kts 297°
2026-04-26 01:39 37.59739 -122.31776 678 ft 121 kts 292°
2026-04-26 01:39 37.60120 -122.32711 496 ft 123 kts 293°
2026-04-26 01:39 37.60512 -122.33682 349 ft 125 kts 294°
2026-04-26 01:40 37.60908 -122.34649 227 ft 124 kts 295°
2026-04-26 01:40 37.61308 -122.35602 90 ft 123 kts 296°
2026-04-26 01:40 37.61698 -122.36538 28 ft 112 kts 297°
2026-04-26 01:40 37.61989 -122.37239 22 ft 66 kts 298°
2026-04-26 01:41 37.62127 -122.37560 22 ft 24 kts 298°
2026-04-26 01:41 37.62192 -122.37719 23 ft 19 kts 296°
2026-04-26 01:41 37.62230 -122.37884 24 ft 22 kts 278°
2026-04-26 01:41 37.62227 -122.38090 25 ft 15 kts 267°
2026-04-26 01:42 37.62201 -122.38186 23 ft 12 kts 215°
2026-04-26 01:42 37.62127 -122.38235 22 ft 7 kts 208°
2026-04-26 01:42 37.62079 -122.38265 24 ft 8 kts 196°
2026-04-26 01:42 37.62043 -122.38214 22 ft 9 kts 118°
2026-04-26 01:43 37.62010 -122.38132 22 ft 12 kts 118°
2026-04-26 01:43 37.61969 -122.38038 22 ft 11 kts 118°
2026-04-26 01:43 37.61915 -122.37992 22 ft 11 kts 180°
2026-04-26 01:43 37.61836 -122.37980 24 ft 13 kts 152°
2026-04-26 01:44 37.61783 -122.37952 22 ft 6 kts 166°
2026-04-26 01:44 37.61732 -122.37948 22 ft 8 kts 180°
2026-04-26 01:44 37.61667 -122.37962 23 ft 11 kts 200°
2026-04-26 01:44 37.61596 -122.38011 22 ft 13 kts 208°
2026-04-26 01:45 37.61512 -122.38067 23 ft 14 kts 208°
2026-04-26 01:45 37.61419 -122.38129 22 ft 16 kts 207°
2026-04-26 01:45 37.61337 -122.38182 23 ft 11 kts 208°
2026-04-26 01:45 37.61266 -122.38230 22 ft 13 kts 208°
2026-04-26 01:46 37.61214 -122.38310 24 ft 11 kts 256°
2026-04-26 01:46 37.61191 -122.38364 22 ft 6 kts 214°
2026-04-26 01:46 37.61145 -122.38394 25 ft 9 kts 207°
2026-04-26 01:46 37.61089 -122.38432 22 ft 10 kts 208°
2026-04-26 01:47 37.61030 -122.38480 25 ft 8 kts 216°
2026-04-26 01:47 37.61011 -122.38519 22 ft 6 kts 289°
2026-04-26 01:47 37.61025 -122.38546 24 ft 2 kts 305°
2026-04-26 01:47 37.61030 -122.38555 23 ft 2 kts 306°
2026-04-26 01:48 37.61033 -122.38559 22 ft 0 kts 306°